This is the latest recevied weather packets stored in our database for station/object KM4NDN. If no packets are shown the sender has not sent any weather packets the latest 10 day(s).
| Time | Temp. | Humidity | Pressure | Rain* | Wind** | Luminosity | Snow |
|---|---|---|---|---|---|---|---|
| 1778003954 | 15° C | 81% | 1006.2 hPa | 1.78 mm | - | 91 W/m² | - |
| 1778003650 | 15° C | 79% | 1006 hPa | 0 mm | - | 118 W/m² | - |
| 1778003346 | 15.56° C | 76% | 1005.9 hPa | 0 mm | - | 98 W/m² | - |
| 1778003044 | 15.56° C | 74% | 1006 hPa | 0 mm | - | 98 W/m² | - |
| 1778002740 | 15.56° C | 73% | 1005.9 hPa | 0 mm | - | 76 W/m² | - |
| 1778002437 | 15.56° C | 73% | 1006 hPa | 0 mm | - | 99 W/m² | - |
| 1778002134 | 16.11° C | 72% | 1006 hPa | 0 mm | - | 122 W/m² | - |
| 1778001832 | 16.11° C | 72% | 1006.2 hPa | 0 mm | - | 208 W/m² | - |
| 1778001531 | 16.11° C | 72% | 1006 hPa | 0 mm | - | 174 W/m² | - |
| 1778001228 | 15.56° C | 73% | 1005.9 hPa | 0 mm | - | 132 W/m² | - |
| 1778000924 | 15.56° C | 72% | 1005.9 hPa | 0 mm | - | 87 W/m² | - |
| 1778000622 | 16.11° C | 72% | 1006 hPa | 0 mm | - | 93 W/m² | - |
| 1778000317 | 16.11° C | 70% | 1006.2 hPa | 0 mm | - | 73 W/m² | - |
| 1778000013 | 16.11° C | 70% | 1006 hPa | 0 mm | - | 80 W/m² | - |
| 1777999708 | 16.11° C | 70% | 1006 hPa | 0 mm | - | 105 W/m² | - |
| 1777999405 | 16.11° C | 70% | 1005.9 hPa | 0 mm | - | 213 W/m² | - |
| 1777999104 | 16.11° C | 70% | 1006.3 hPa | 0 mm | - | 139 W/m² | - |
| 1777998802 | 16.67° C | 70% | 1005.8 hPa | 0 mm | - | 110 W/m² | - |
| 1777998500 | 16.67° C | 70% | 1006 hPa | 0 mm | - | 154 W/m² | - |
| 1777998196 | 16.67° C | 70% | 1006 hPa | 0 mm | - | 224 W/m² | - |
| 1777997893 | 16.11° C | 70% | 1005.9 hPa | 0 mm | - | 187 W/m² | - |
| 1777997591 | 16.11° C | 71% | 1006 hPa | 0 mm | - | 126 W/m² | - |
| 1777997288 | 16.11° C | 71% | 1006.2 hPa | 0 mm | - | 86 W/m² | - |
| 1777996986 | 16.67° C | 70% | 1006.2 hPa | 0 mm | - | 75 W/m² | - |
| 1777996682 | 16.67° C | 70% | 1006 hPa | 0 mm | - | 88 W/m² | - |
* Rain latest hour (hover to see other rain measurements)
** Current wind speed in m/s (hover to see current wind gust speed)